Regional Weather Roundup
Issued by NWS

Home | Current Version | Previous Version | Graphics & Text | Print | Product List | Glossary On
Versions: 1 2 3 4 5 6 7 8 9 10 11 12 13 14 15 16 17 18 19 20 21 22 23 24 25 26 27 28 29 30 31 32 33 34 35 36 37 38 39 40 41 42 43 44 45 46 47 48 49 50
000
ASUS43 KLOT 211208
RWRIL

ILLINOIS REGIONAL WEATHER ROUNDUP
NATIONAL WEATHER SERVICE CHICAGO/ROMEOVILLE IL
700 AM CDT TUE APR 21 2015

NOTE: "FAIR" INDICATES FEW OR NO CLOUDS BELOW 12,000 FEET WITH NO
SIGNIFICANT WEATHER AND/OR OBSTRUCTIONS TO VISIBILITY.

* THESE STATIONS ARE NOT UNDER NWS QUALITY CONTROL. THEY ALSO MAY NOT
  REPORT WEATHER SUCH AS PRECIPITATION OR FOG.

ILZ001-002-007-009-015-016-024-211300-
NORTHWEST ILLINOIS

CITY           SKY/WX    TMP DP  RH WIND       PRES   REMARKS
MOLINE         CLEAR     40  28  62 SW12      29.69R
6HR MIN TEMP:  38; 6HR MAX TEMP:  42;

STERLING*      CLEAR     39  28  65 W15       29.66R WCI  31
SAVANNA*       PTCLDY    40  30  67 W14G22    29.64R
$$

ILZ003-004-008-010-011-017-018-211300-
NORTH CENTRAL ILLINOIS

CITY           SKY/WX    TMP DP  RH WIND       PRES   REMARKS
ROCKFORD       MOCLDY    40  29  64 W18G25    29.62R
6HR MIN TEMP:  39; 6HR MAX TEMP:  41;

FREEPORT*      CLOUDY    38  30  75 W13G18    29.61S WCI  30
ROCHELLE*      CLEAR     38  31  75 W20       29.63R WCI  28
DE KALB*       PTCLDY    36  29  76 W18       29.62R WCI  25
PERU*          CLEAR     41  32  70 W16       29.67S
$$

ILZ005-006-012>014-019>023-211300-
NORTHEAST ILLINOIS

CITY           SKY/WX    TMP DP  RH WIND       PRES   REMARKS
CHICAGO-OHARE  PTCLDY    40  29  64 W17G24    29.59S
6HR MIN TEMP:  39; 6HR MAX TEMP:  42;

CHICAGO-MIDWAY PTCLDY    42  30  62 SW12      29.62S
6HR MIN TEMP:  41; 6HR MAX TEMP:  45;

AURORA         CLEAR     39  29  67 SW16      29.63R WCI  30
6HR MIN TEMP:  37; 6HR MAX TEMP:  42;

LANSING*       CLEAR     40  28  63 SW12      29.64S
JOLIET*        CLEAR     41  32  69 SW13      29.65S
WAUKEGAN       MOCLDY    39  29  67 SW8       29.55R WCI  33
6HR MIN TEMP:  37; 6HR MAX TEMP:  40;

DUPAGE AIRPORT CLEAR     38  30  73 SW16      29.60S WCI  29
6HR MIN TEMP:  37; 6HR MAX TEMP:  41;

KANKAKEE*      CLEAR     38  32  80 SW13      29.68F WCI  30
WHEELING       CLOUDY    40  28  62 SW12G23   29.59S
6HR MIN TEMP:  39; 6HR MAX TEMP:  42;

MORRIS*        CLEAR     39  32  75 SW12      29.62S WCI  32
ROMEOVILLE*    CLEAR     39  30  70 SW13      29.64S WCI  31
NORTHERLY ISL    N/A     43  29  58 SW7         N/A
$$

LMZ740>746-211300-
SOUTHERN LAKE MICHIGAN

STATION/POSITION SKY/WX   TEMP    WIND        PRES    VSBY  WAVE
                          AIR SEA DIR/SP/G                  HT/PER
                          (F)     (DEG/KT/KT) (MB)    (MI)  (FT/S)
HARRISON CRIB              42     250/ 25/ 34   N/A
BURNHAM HARBOR             43     200/ 10/ 19   N/A
CALUMET HARBOR             42     230/  9/ 19   N/A
BURNS HARBOR               42     230/ 15/ 19 1003.7S
MICHIGAN CITY              42     200/ 18/ 21   N/A
MICHIGAN CITY 6N           44 45  250/ 17/ 23   N/A           4/ 4
$$

ILZ025>027-034>036-040-047-049-050-058-095>099-211300-
WEST-CENTRAL ILLINOIS

CITY           SKY/WX    TMP DP  RH WIND       PRES   REMARKS
QUINCY         PTCLDY    38  30  73 SW7       29.78R WCI  33
GALESBURG*     CLEAR     36  28  71 SW8       29.73R WCI  30
MACOMB*        CLEAR     36  30  78 W10       29.77R WCI  29
JACKSONVILLE*  MOCLDY    43  33  68 SW9       29.79R
PITTSFIELD*    MOCLDY    45  32  60 SW12      29.80S
$$

ILZ028>032-037-038-041>044-048-051>054-059>061-211300-
CENTRAL ILLINOIS

CITY           SKY/WX    TMP DP  RH WIND       PRES   REMARKS
PONTIAC        CLEAR     39  33  77 SW12      29.70S WCI  32
BLOOMINGTON    CLEAR     40  31  70 W13       29.73R
DECATUR        FAIR      42  31  64 SW12      29.76R
PEORIA         CLEAR     40  27  59 W7        29.73R
6HR MIN TEMP:  38; 6HR MAX TEMP:  45;

LACON*         CLEAR     40  28  63 SW9       29.70R
LINCOLN*       CLEAR     42  32  66 W5        29.75R
SPRINGFIELD    PTCLDY    42  32  67 W13       29.78R
6HR MIN TEMP:  40; 6HR MAX TEMP:  47;

TAYLORVILLE    PTCLDY    43  32  65 SW13      29.78R
$$

ILZ033-039-045-046-055>057-062-063-211300-
EAST-CENTRAL ILLINOIS

CITY           SKY/WX    TMP DP  RH WIND       PRES   REMARKS
CHAMPAIGN      CLEAR     39  32  76 SW14      29.74R WCI  31
DANVILLE*      CLEAR     40  33  76 SW12      29.71S
RANTOUL*       CLEAR     40  34  77 SW12      29.73R
MATTOON        FAIR      43  31  62 SW9       29.77R
PARIS*         CLEAR     41  35  78 SW12      29.77S
$$

ILZ079-100>102-211300-
SOUTHWEST ILLINOIS

CITY           SKY/WX    TMP DP  RH WIND       PRES   REMARKS
ALTON          PTCLDY    43  28  56 SW8       29.83S
BELLEVILLE     PTCLDY    42  33  70 SW7       29.84R
CAHOKIA*       MOCLDY    46  31  55 SW7       29.84R
SPARTA*        CLEAR     45  31  58 SW7       29.88R
$$

ILZ064>066-069>071-074>076-080>082-084>086-088>090-092>094-211300-
SOUTH-CENTRAL ILLINOIS

CITY           SKY/WX    TMP DP  RH WIND       PRES   REMARKS
CARBONDALE     CLEAR     42  34  73 SW7       29.89R
6HR MIN TEMP:  39; 6HR MAX TEMP:  45;

CAIRO*         CLEAR     47  38  68 SW7       29.93S
EFFINGHAM*     PTCLDY    44  31  59 SW8       29.82S
MARION         CLEAR     48  34  57 SW12      29.90R
MT. VERNON     CLEAR     43  32  65 SW8       29.86R
CENTRALIA*     CLEAR     46  32  59 SW9       29.84R
SALEM*         CLEAR     46  32  57 SW8       29.84R
METROPOLIS*    CLEAR     46  38  74 SW6       29.92R
$$

ILZ067-068-072-073-078-083-087-091-211300-
SOUTHEAST ILLINOIS

CITY           SKY/WX    TMP DP  RH WIND       PRES   REMARKS
LAWRENCEVILLE  PTCLDY    47  33  58 SW14      29.83R
FLORA*         PTCLDY    45  32  60 SW9       29.84S
FAIRFIELD*     CLEAR     45  34  66 SW6       29.84S
HARRISBURG*    CLEAR     44  34  69 CALM      29.90R
ROBINSON*      CLEAR     46  33  60 SW15      29.82R
CARMI*         CLEAR     46  32  56 SW12      29.87R
$$

ABBREVIATIONS USED IN REMARKS
   TC - TEMPERATURE IN CELSIUS
  WCI - WIND CHILL INDEX
   HX - HEAT INDEX
  VSB - VISIBILITY
$$



USA.gov is the U.S. government's official web portal to all federal, state and local government web resources and services.